Weather History for KTCM - May, 2013

Change the Weather History Date:

Friday, May 24, 2013

  Actual Average Record
Temperature  
Mean Temperature 52 °F -  
Max Temperature 59 °F 64 °F 89 °F (1992)
Min Temperature 44 °F 45 °F 36 °F (1975)
Degree Days  
Heating Degree Days 14    
Growing Degree Days 2 (Base 50)    
Moisture  
Dew Point 48 °F    
Average Humidity 90    
Maximum Humidity 100    
Minimum Humidity 63    
Precipitation  
Precipitation 0.22 in - - ()
Sea Level Pressure  
Sea Level Pressure 30.04 in    
Wind  
Wind Speed 3 mph (SSW)    
Max Wind Speed 14 mph    
Max Gust Speed 20 mph    
Visibility 8 miles    
Events Fog , Rain    
Averages and records for this station are not official NWS values.
T = Trace of Precipitation, MM = Missing Value Source: NWS Daily Summary

Daily Weather History Graph

Daily Weather History Graph

Search for Another Location

Airport or City:

Trip Planner

Search our weather history database for the weather conditions in past years. The results will help you decide how hot, cold, wet, or windy it might be!

Date:

Astronomy

May. 24, 2013 Rise Set
Actual Time 5:24 AM PDT 8:50 PM PDT
Civil Twilight 4:46 AM PDT 9:27 PM PDT
Nautical Twilight 3:56 AM PDT 10:17 PM PDT
Astronomical Twilight 2:52 AM PDT 11:23 PM PDT
Moon 8:36 PM PDT (5/24) 5:04 AM PDT (5/24)
Length of Visible Light 16h 41m
Length of Day
15h 26m
Full, 100% of the Moon is Illuminated
May 24
Full
May 24
Full
May 31
Last Quarter
Jun 8
New
Jun 16
First Quarter

Hourly Weather History & Observations

Time (PDT) Temp. Windchill Dew Point Humidity Pressure Visibility Wind Dir Wind Speed Gust Speed Precip Events Conditions
12:08 AM 48.2 °F - 48.2 °F 100% 29.99 in 10.0 mi Calm Calm - N/A Rain Light Rain
12:58 AM 48.0 °F - 47.7 °F 99% 30.00 in 10.0 mi North 2.3 mph - 0.01 in Rain Light Rain
1:39 AM 46.4 °F - 46.4 °F 100% 29.98 in 10.0 mi NE 2.3 mph - N/A   Overcast
1:58 AM 47.5 °F - 47.1 °F 99% 30.00 in 10.0 mi Calm Calm - 0.01 in   Overcast
2:58 AM 47.3 °F - 47.1 °F 99% 30.00 in 10.0 mi Calm Calm - N/A   Overcast
3:34 AM 46.4 °F - 46.4 °F 100% 29.98 in 10.0 mi SSE 1.2 mph - N/A   Mostly Cloudy
3:37 AM 46.4 °F - 46.4 °F 100% 29.98 in 10.0 mi Calm Calm - N/A Rain Light Rain
3:51 AM 46.4 °F 45.2 °F 46.4 °F 100% 29.98 in 10.0 mi South 3.5 mph - N/A Rain Light Rain
3:55 AM 46.4 °F - 46.4 °F 100% 29.98 in 10.0 mi SSE 1.2 mph - N/A   Mostly Cloudy
3:58 AM 46.4 °F - 46.0 °F 99% 30.00 in 10.0 mi Calm Calm - 0.00 in   Mostly Cloudy
4:48 AM 46.4 °F - 46.4 °F 100% 29.99 in 5.0 mi Calm Calm - N/A   Overcast
4:58 AM 46.4 °F - 46.2 °F 99% 30.01 in 10.0 mi Calm Calm - N/A   Overcast
5:28 AM 46.4 °F - 44.6 °F 93% 29.99 in 2.0 mi Calm Calm - N/A   Mostly Cloudy
5:33 AM 44.6 °F - 44.6 °F 100% 29.99 in 1.0 mi North 1.2 mph - N/A   Mostly Cloudy
5:38 AM 46.4 °F - 46.4 °F 100% 29.99 in 1.5 mi NNW 1.2 mph - N/A   Mostly Cloudy
5:43 AM 46.4 °F 45.2 °F 46.4 °F 100% 30.00 in 2.5 mi NNW 3.5 mph - N/A   Mostly Cloudy
5:48 AM 46.4 °F - 46.4 °F 100% 30.00 in 2.0 mi North 2.3 mph - N/A   Mostly Cloudy
5:53 AM 46.4 °F - 46.4 °F 100% 30.00 in 2.5 mi NNW 1.2 mph - N/A   Mostly Cloudy
5:58 AM 46.4 °F - 44.6 °F 93% 30.02 in 1.2 mi North - - N/A   Mostly Cloudy
6:03 AM 44.6 °F - 44.6 °F 100% 30.00 in 0.8 mi Calm Calm - N/A   Mostly Cloudy
6:08 AM 44.6 °F - 44.6 °F 100% 30.00 in 0.5 mi Calm Calm - N/A Fog Fog
6:13 AM 44.6 °F - 44.6 °F 100% 30.00 in 0.8 mi Calm Calm - N/A   Overcast
6:18 AM 44.6 °F - 44.6 °F 100% 30.00 in 1.5 mi Calm Calm - N/A   Overcast
6:23 AM 44.6 °F - 44.6 °F 100% 30.00 in 6.0 mi Calm Calm - N/A   Overcast
6:43 AM 46.4 °F - 46.4 °F 100% 30.01 in 10.0 mi Calm Calm - N/A   Overcast
6:58 AM 46.9 °F - 46.8 °F 99% 30.02 in 10.0 mi Calm Calm - N/A   Overcast
7:03 AM 46.4 °F - 46.4 °F 100% 30.00 in 10.0 mi Calm Calm - N/A   Overcast
7:43 AM 48.2 °F - 46.4 °F 93% 30.01 in 10.0 mi NNW 1.2 mph - N/A   Overcast
7:53 AM 50.0 °F - 46.4 °F 87% 30.02 in 10.0 mi Calm Calm - N/A   Overcast
7:58 AM 49.1 °F - 45.5 °F 87% 30.04 in 10.0 mi Calm Calm - N/A   Overcast
8:28 AM 50.0 °F - 46.4 °F 87% 30.02 in 10.0 mi NNE 1.2 mph - N/A   Overcast
8:43 AM 50.0 °F - 46.4 °F 87% 30.02 in 10.0 mi NE 2.3 mph - N/A   Overcast
8:58 AM 50.7 °F - 46.8 °F 86% 30.04 in 10.0 mi NNE 4.6 mph - N/A   Overcast
9:03 AM 50.0 °F - 46.4 °F 87% 30.02 in 10.0 mi East 3.5 mph - N/A   Overcast
9:53 AM 51.8 °F - 46.4 °F 82% 30.03 in 10.0 mi East 5.8 mph - N/A   Overcast
9:58 AM 52.3 °F - 46.6 °F 81% 30.05 in 10.0 mi SE 4.6 mph - N/A   Overcast
10:13 AM 51.8 °F - 46.4 °F 82% 30.03 in 10.0 mi SW 3.5 mph - N/A   Overcast
10:53 AM 51.8 °F - 46.4 °F 82% 30.03 in 10.0 mi Variable 2.3 mph - N/A   Overcast
10:58 AM 52.5 °F - 46.9 °F 81% 30.05 in 10.0 mi Variable 3.5 mph - N/A   Overcast
11:03 AM 53.6 °F - 48.2 °F 82% 30.03 in 10.0 mi WNW 6.9 mph - N/A   Overcast
11:58 AM 53.1 °F - 46.0 °F 77% 30.06 in 10.0 mi West 4.6 mph - N/A   Overcast
12:58 PM 57.0 °F - 46.2 °F 67% 30.04 in 10.0 mi Variable 2.3 mph - N/A   Mostly Cloudy
1:21 PM 57.2 °F - 46.4 °F 67% 30.03 in 10.0 mi WSW 10.4 mph - N/A Rain Light Rain
1:40 PM 57.2 °F - 48.2 °F 72% 30.04 in 10.0 mi SW 4.6 mph - N/A   Overcast
1:58 PM 58.6 °F - 47.8 °F 67% 30.04 in 10.0 mi WSW 12.7 mph - 0.00 in   Mostly Cloudy
2:13 PM 57.2 °F - 46.4 °F 67% 30.04 in 10.0 mi SW 6.9 mph - N/A Rain Light Rain
2:34 PM 55.4 °F - 48.2 °F 77% 30.04 in 10.0 mi Variable 1.2 mph - N/A   Mostly Cloudy
2:58 PM 58.3 °F - 46.4 °F 65% 30.04 in 10.0 mi East 2.3 mph - 0.00 in   Scattered Clouds
3:35 PM 59.0 °F - 46.4 °F 63% 30.03 in 10.0 mi Variable 1.2 mph - N/A Rain Light Rain
3:56 PM 59.0 °F - 46.4 °F 63% 30.03 in 10.0 mi Variable 2.3 mph - N/A   Mostly Cloudy
3:58 PM 59.0 °F - 46.4 °F 63% 30.04 in 10.0 mi SSW 3.5 mph - 0.00 in   Mostly Cloudy
3:59 PM 59.0 °F - 46.4 °F 63% 30.03 in 10.0 mi South 3.5 mph - N/A Rain Light Rain
4:09 PM 57.2 °F - 50.0 °F 77% 30.03 in 2.5 mi SW 3.5 mph - N/A Rain Heavy Rain
4:14 PM 57.2 °F - 50.0 °F 77% 30.03 in 2.5 mi Variable 2.3 mph - N/A Rain Light Rain
4:19 PM 57.2 °F - 50.0 °F 77% 30.03 in 7.0 mi WSW 2.3 mph - N/A Rain Light Rain
4:22 PM 57.2 °F - 50.0 °F 77% 30.03 in 10.0 mi South 1.2 mph - N/A   Mostly Cloudy
4:50 PM 57.2 °F - 51.8 °F 82% 30.04 in 10.0 mi West 13.8 mph 19.6 mph N/A Rain Light Rain
4:58 PM 56.3 °F - 51.1 °F 83% 30.06 in 2.5 mi West 8.1 mph 19.6 mph 0.08 in Rain Heavy Rain
5:03 PM 55.4 °F - 51.8 °F 88% 30.04 in 2.0 mi WNW 6.9 mph - N/A Rain Heavy Rain
5:08 PM 55.4 °F - 50.0 °F 82% 30.03 in 4.0 mi West 8.1 mph - N/A Rain Light Rain
5:13 PM 55.4 °F - 51.8 °F 88% 30.03 in 10.0 mi NW 4.6 mph - N/A   Mostly Cloudy
5:31 PM 57.2 °F - 51.8 °F 82% 30.04 in 10.0 mi SW 12.7 mph 17.3 mph N/A Rain Light Rain
5:41 PM 55.4 °F - 51.8 °F 88% 30.04 in 2.5 mi WSW 5.8 mph - N/A Rain Rain
5:46 PM 53.6 °F - 51.8 °F 94% 30.04 in 3.0 mi WSW 4.6 mph - N/A Rain Light Rain
5:58 PM 54.9 °F - 50.7 °F 86% 30.06 in 10.0 mi WSW 5.8 mph - 0.08 in Rain Light Rain
5:59 PM 55.4 °F - 50.0 °F 82% 30.04 in 10.0 mi WSW 5.8 mph - N/A   Overcast
6:44 PM 55.4 °F - 50.0 °F 82% 30.05 in 10.0 mi SSW 8.1 mph - N/A   Overcast
6:47 PM 55.4 °F - 50.0 °F 82% 30.05 in 10.0 mi South 10.4 mph - N/A Rain Light Rain
6:56 PM 53.6 °F - 50.0 °F 88% 30.05 in 9.0 mi South 10.4 mph - N/A   Overcast
6:58 PM 53.6 °F - 50.0 °F 88% 30.06 in 9.0 mi South 10.4 mph - 0.00 in   Overcast
7:00 PM 53.6 °F - 50.0 °F 88% 30.05 in 7.0 mi SSW 10.4 mph - N/A Rain Light Rain
7:23 PM 51.8 °F - 50.0 °F 94% 30.05 in 10.0 mi South 9.2 mph - N/A   Overcast
7:32 PM 51.8 °F - 50.0 °F 94% 30.06 in 10.0 mi SSW 8.1 mph - N/A Rain Light Rain
7:41 PM 51.8 °F - 50.0 °F 94% 30.06 in 10.0 mi SSW 5.8 mph - N/A   Overcast
7:58 PM 52.5 °F - 51.3 °F 95% 30.08 in 10.0 mi South 6.9 mph - 0.04 in   Overcast
8:43 PM 51.8 °F - 51.8 °F 100% 30.06 in 10.0 mi South 4.6 mph - N/A   Overcast
8:45 PM 51.8 °F - 51.8 °F 100% 30.06 in 10.0 mi South 5.8 mph - N/A Rain Light Rain
8:50 PM 51.8 °F - 51.8 °F 100% 30.06 in 10.0 mi South 6.9 mph - N/A Rain Light Rain
8:55 PM 51.8 °F - 51.8 °F 100% 30.07 in 10.0 mi SSW 4.6 mph - N/A Rain Light Rain
8:58 PM 52.0 °F - 51.3 °F 97% 30.09 in 10.0 mi SSW 5.8 mph - 0.00 in Rain Light Rain
9:03 PM 51.8 °F - 51.8 °F 100% 30.07 in 10.0 mi SW 6.9 mph - N/A Rain Light Rain
9:06 PM 51.8 °F - 51.8 °F 100% 30.07 in 9.0 mi Variable 6.9 mph - N/A Rain Light Rain
9:11 PM 51.8 °F - 48.2 °F 88% 30.07 in 9.0 mi SW 8.1 mph - N/A   Light Drizzle
9:13 PM 51.8 °F - 48.2 °F 88% 30.07 in 10.0 mi SW 6.9 mph - N/A   Overcast
9:23 PM 51.8 °F - 48.2 °F 88% 30.07 in 10.0 mi SW 5.8 mph - N/A   Overcast
9:25 PM 51.8 °F - 48.2 °F 88% 30.08 in 10.0 mi SW 5.8 mph - N/A   Overcast
9:30 PM 51.8 °F - 48.2 °F 88% 30.08 in 10.0 mi SSW 4.6 mph - N/A   Overcast
9:50 PM 51.8 °F - 50.0 °F 94% 30.08 in 10.0 mi South 5.8 mph - N/A   Overcast
9:55 PM 51.8 °F - 50.0 °F 94% 30.08 in 10.0 mi South 5.8 mph - N/A   Overcast
9:58 PM 50.9 °F - 50.4 °F 98% 30.09 in 10.0 mi South 4.6 mph - 0.00 in   Overcast
10:08 PM 50.0 °F - 50.0 °F 100% 30.08 in 10.0 mi South 3.5 mph - N/A   Overcast
10:13 PM 50.0 °F - 50.0 °F 100% 30.08 in 10.0 mi South 4.6 mph - N/A   Overcast
10:18 PM 50.0 °F - 50.0 °F 100% 30.08 in 10.0 mi South 5.8 mph - N/A   Overcast
10:58 PM 50.2 °F - 50.0 °F 99% 30.09 in 10.0 mi South 5.8 mph - N/A   Overcast
11:08 PM 50.0 °F - 50.0 °F 100% 30.07 in 10.0 mi South 4.6 mph - N/A   Overcast
11:38 PM 50.0 °F - 50.0 °F 100% 30.07 in 10.0 mi South 4.6 mph - N/A   Overcast
11:58 PM 49.6 °F - 49.3 °F 99% 30.08 in 10.0 mi South 4.6 mph - N/A   Overcast